Tillbaka till svenska Fidonet
English   Information   Debug  
FILM   0/18
FNEWS_PUBLISH   4926
FN_SYSOP   42201
FN_SYSOP_OLD1   71952
FTP_FIDO   0/2
FTSC_PUBLIC   0/13972
FUNNY   0/4886
GENEALOGY.EUR   0/71
GET_INFO   105
GOLDED   0/408
HAM   3786/16660
HOLYSMOKE   0/6791
HOT_SITES   0/1
HTMLEDIT   0/71
HUB203   466
HUB_100   264
HUB_400   39
HUMOR   0/29
IC   0/2851
INTERNET   0/424
INTERUSER   0/3
IP_CONNECT   719
JAMNNTPD   0/233
JAMTLAND   0/47
KATTY_KORNER   0/41
LAN   0/16
LINUX-USER   0/19
LINUXHELP   0/1155
LINUX   0/22300
LINUX_BBS   0/957
mail   18.68
mail_fore_ok   249
MENSA   0/341
MODERATOR   0/102
MONTE   0/992
MOSCOW_OKLAHOMA   0/1245
MUFFIN   0/783
MUSIC   0/321
N203_STAT   938
N203_SYSCHAT   313
NET203   321
NET204   69
NET_DEV   0/10
NORD.ADMIN   0/101
NORD.CHAT   0/2572
NORD.FIDONET   189
NORD.HARDWARE   0/28
NORD.KULTUR   0/114
NORD.PROG   0/32
NORD.SOFTWARE   0/88
NORD.TEKNIK   0/58
NORD   0/453
OCCULT_CHAT   0/93
OS2BBS   0/787
OS2DOSBBS   0/580
OS2HW   0/42
OS2INET   0/37
OS2LAN   0/134
OS2PROG   0/36
OS2REXX   0/113
OS2USER-L   207
OS2   0/4830
OSDEBATE   0/18996
PASCAL   0/490
PERL   0/457
PHP   0/45
POINTS   0/405
POLITICS   0/29554
POL_INC   0/14731
PSION   103
R20_ADMIN   1133
R20_AMATORRADIO   0/2
R20_BEST_OF_FIDONET   16
R20_CHAT   0/896
R20_DEPP   0/3
R20_DEV   400
R20_ECHO2   1831
R20_ECHOPRES   0/35
R20_ESTAT   0/719
R20_FIDONETPROG...
...RAM.MYPOINT
  0/2
R20_FIDONETPROGRAM   0/22
R20_FIDONET   0/248
R20_FILEFIND   0/24
R20_FILEFOUND   0/22
R20_HIFI   0/3
R20_INFO2   3723
R20_INTERNET   0/12940
R20_INTRESSE   0/60
R20_INTR_KOM   0/99
R20_KANDIDAT.CHAT   42
R20_KANDIDAT   28
R20_KOM_DEV   112
R20_KONTROLL   0/13360
R20_KORSET   0/18
R20_LOKALTRAFIK   0/24
R20_MODERATOR   0/1852
R20_NC   76
R20_NET200   245
R20_NETWORK.OTH...
...ERNETS
  0/13
R20_OPERATIVSYS...
...TEM.LINUX
  0/44
R20_PROGRAMVAROR   0/1
R20_REC2NEC   534
R20_SFOSM   0/341
R20_SF   0/108
R20_SPRAK.ENGLISH   0/1
R20_SQUISH   107
R20_TEST   2
R20_WORST_OF_FIDONET   20
RAR   0/9
RA_MULTI   106
RA_UTIL   0/162
REGCON.EUR   0/2068
REGCON   0/13
SCIENCE   0/1206
SF   0/239
SHAREWARE_SUPPORT   0/5146
SHAREWRE   0/14
SIMPSONS   0/169
STATS_OLD1   0/2539.065
STATS_OLD2   0/2530
STATS_OLD3   0/2395.095
STATS_OLD4   0/1692.25
SURVIVOR   0/495
SYSOPS_CORNER   0/3
SYSOP   0/84
TAGLINES   0/112
TEAMOS2   0/4530
TECH   0/2617
TEST.444   0/105
TRAPDOOR   0/19
TREK   0/755
TUB   0/290
UFO   0/40
UNIX   0/1316
USA_EURLINK   0/102
USR_MODEMS   0/1
VATICAN   0/2740
VIETNAM_VETS   0/14
VIRUS   0/378
VIRUS_INFO   0/201
VISUAL_BASIC   0/473
WHITEHOUSE   0/5187
WIN2000   0/101
WIN32   0/30
WIN95   0/4291
WIN95_OLD1   0/70272
WINDOWS   0/1517
WWB_SYSOP   0/419
WWB_TECH   0/810
ZCC-PUBLIC   0/1
ZEC   4

 
4DOS   0/134
ABORTION   0/7
ALASKA_CHAT   0/506
ALLFIX_FILE   0/1313
ALLFIX_FILE_OLD1   0/7997
ALT_DOS   0/152
AMATEUR_RADIO   0/1039
AMIGASALE   0/14
AMIGA   0/331
AMIGA_INT   0/1
AMIGA_PROG   0/20
AMIGA_SYSOP   0/26
ANIME   0/15
ARGUS   0/924
ASCII_ART   0/340
ASIAN_LINK   0/651
ASTRONOMY   0/417
AUDIO   0/92
AUTOMOBILE_RACING   0/105
BABYLON5   0/17862
BAG   135
BATPOWER   0/361
BBBS.ENGLISH   0/382
BBSLAW   0/109
BBS_ADS   0/5290
BBS_INTERNET   0/507
BIBLE   0/3563
BINKD   0/1119
BINKLEY   0/215
BLUEWAVE   0/2173
CABLE_MODEMS   0/25
CBM   0/46
CDRECORD   0/66
CDROM   0/20
CLASSIC_COMPUTER   0/378
COMICS   0/15
CONSPRCY   0/899
COOKING   41444
COOKING_OLD1   0/24719
COOKING_OLD2   0/40862
COOKING_OLD3   0/37489
COOKING_OLD4   0/35496
COOKING_OLD5   9370
C_ECHO   0/189
C_PLUSPLUS   0/31
DIRTY_DOZEN   0/201
DOORGAMES   0/2285
DOS_INTERNET   0/196
duplikat   6102
ECHOLIST   0/18295
EC_SUPPORT   0/318
ELECTRONICS   0/359
ELEKTRONIK.GER   1534
ENET.LINGUISTIC   0/13
ENET.POLITICS   0/4
ENET.SOFT   0/11701
ENET.SYSOP   34296
ENET.TALKS   0/32
ENGLISH_TUTOR   0/2000
EVOLUTION   0/1335
FDECHO   0/217
FDN_ANNOUNCE   0/7068
FIDONEWS   25062
FIDONEWS_OLD1   0/49742
FIDONEWS_OLD2   0/35949
FIDONEWS_OLD3   0/30874
FIDONEWS_OLD4   0/37224
FIDO_SYSOP   12922
FIDO_UTIL   0/180
FILEFIND   0/209
FILEGATE   0/212
Möte HAM, 16660 texter
 lista första sista föregående nästa
Text 3264, 885 rader
Skriven 2009-10-13 00:30:25 av Amsat List (1:323/120.0)
Ärende: [keps]  orb09285.amsa
=============================
[keps]  orb09285.amsa

Return-Path: <keps-bounces@amsat.org>
X-Rcpt: craig.healy@chowda.com
X-UIDL: 1255406666.507

SB KEPS @ AMSAT  $ORB09285.O
Orbital Elements  09285.OSCAR

HR AMSAT ORBITAL ELEMENTS FOR OSCAR SATELLITES
FROM WA5QGD FORT WORTH,TX October 12, 2009
Send Subscribe/unsubscribe to KEPS at 
http://www.amsat.org/mailman/listinfo/keps
BID: ORB09285.O
TO ALL RADIO AMATEURS BT

Satellite: AO-07
Catalog number: 07530
Epoch time:      09284.68588776
Element set:    0603
Inclination:      101.4203 deg
RA of node:       305.0610 deg
Eccentricity:    0.0012100
Arg of perigee:   040.9512 deg
Mean anomaly:     319.2461 deg
Mean motion:   12.53576789 rev/day
Decay rate:       -2.7e-07 rev/day^2
Epoch rev:           59731
Checksum:              285

Satellite: FO-29
Catalog number: 24278
Epoch time:      09284.62612305
Element set:    0169
Inclination:      098.5333 deg
RA of node:       142.9104 deg
Eccentricity:    0.0351297
Arg of perigee:   048.6507 deg
Mean anomaly:     314.4291 deg
Mean motion:   13.52946048 rev/day
Decay rate:        1.2e-07 rev/day^2
Epoch rev:           64949
Checksum:              319

Satellite: SO-33
Catalog number: 25509
Epoch time:      09284.92153208
Element set:    0564
Inclination:      031.4331 deg
RA of node:       112.4037 deg
Eccentricity:    0.0354962
Arg of perigee:   279.0919 deg
Mean anomaly:     076.9709 deg
Mean motion:   14.28266679 rev/day
Decay rate:      -1.76e-06 rev/day^2
Epoch rev:           57253
Checksum:              330

Satellite: RS-22
Catalog number: 27939
Epoch time:      09284.64639818
Element set:    0912
Inclination:      097.9226 deg
RA of node:       155.1593 deg
Eccentricity:    0.0014292
Arg of perigee:   121.7698 deg
Mean anomaly:     238.4884 deg
Mean motion:   14.63346217 rev/day
Decay rate:        2.6e-07 rev/day^2
Epoch rev:           32260
Checksum:              336

Satellite: VO-52
Catalog number: 28650
Epoch time:      09285.56119120
Element set:     340
Inclination:      097.7291 deg
RA of node:       343.1782 deg
Eccentricity:    0.0027154
Arg of perigee:   008.9529 deg
Mean anomaly:     351.2171 deg
Mean motion:   14.81628280 rev/day
Decay rate:       1.42e-06 rev/day^2
Epoch rev:           24002
Checksum:              284

/EX
SB KEPS @ AMSAT  $ORB09285.D
Orbital Elements  09285.MICROS

HR AMSAT ORBITAL ELEMENTS FOR THE MICROSATS
FROM WA5QGD FORT WORTH,TX October 12, 2009
Send Subscribe/unsubscribe to KEPS at 
http://www.amsat.org/mailman/listinfo/keps
BID: ORB09285.D
TO ALL RADIO AMATEURS BT

Satellite: AO-16
Catalog number: 20439
Epoch time:      09285.46427211
Element set:     724
Inclination:      098.2953 deg
RA of node:       248.6217 deg
Eccentricity:    0.0010746
Arg of perigee:   177.6266 deg
Mean anomaly:     182.4971 deg
Mean motion:   14.31835278 rev/day
Decay rate:       -1.3e-07 rev/day^2
Epoch rev:            2993
Checksum:              321

Satellite: LO-19
Catalog number: 20442
Epoch time:      09284.66365852
Element set:    0638
Inclination:      098.2591 deg
RA of node:       254.6660 deg
Eccentricity:    0.0012104
Arg of perigee:   176.1822 deg
Mean anomaly:     183.9450 deg
Mean motion:   14.32069238 rev/day
Decay rate:       -9.9e-07 rev/day^2
Epoch rev:           02998
Checksum:              327

Satellite: AO-27
Catalog number: 22825
Epoch time:      09284.77532568
Element set:     361
Inclination:      098.4511 deg
RA of node:       234.6003 deg
Eccentricity:    0.0007469
Arg of perigee:   281.0532 deg
Mean anomaly:     078.9807 deg
Mean motion:   14.29274985 rev/day
Decay rate:       -1.8e-07 rev/day^2
Epoch rev:           83656
Checksum:              336

Satellite: IO-26
Catalog number: 22826
Epoch time:      09284.88495070
Element set:    0092
Inclination:      098.4440 deg
RA of node:       235.4068 deg
Eccentricity:    0.0008126
Arg of perigee:   278.1128 deg
Mean anomaly:     081.9139 deg
Mean motion:   14.29528034 rev/day
Decay rate:       -5.0e-08 rev/day^2
Epoch rev:           83668
Checksum:              324

Satellite: GO-32
Catalog number: 25397
Epoch time:      09284.78094626
Element set:    0013
Inclination:      098.3237 deg
RA of node:       300.8552 deg
Eccentricity:    0.0000329
Arg of perigee:   250.5995 deg
Mean anomaly:     109.5145 deg
Mean motion:   14.23164421 rev/day
Decay rate:       -5.4e-07 rev/day^2
Epoch rev:           58471
Checksum:              303

Satellite: NO-44
Catalog number: 26931
Epoch time:      09284.84152504
Element set:     286
Inclination:      067.0505 deg
RA of node:       123.8082 deg
Eccentricity:    0.0006699
Arg of perigee:   272.6646 deg
Mean anomaly:     087.3678 deg
Mean motion:   14.29570482 rev/day
Decay rate:       2.06e-06 rev/day^2
Epoch rev:           41925
Checksum:              327

Satellite: SO-50
Catalog number: 27607
Epoch time:      09285.69718045
Element set:       6
Inclination:      064.5596 deg
RA of node:       028.1950 deg
Eccentricity:    0.0053024
Arg of perigee:   175.8020 deg
Mean anomaly:     184.3542 deg
Mean motion:   14.71464934 rev/day
Decay rate:       -1.1e-07 rev/day^2
Epoch rev:           36596
Checksum:              307

Satellite: CO-55
Catalog number: 27844
Epoch time:      09284.76505892
Element set:     686
Inclination:      098.7143 deg
RA of node:       292.2963 deg
Eccentricity:    0.0009885
Arg of perigee:   162.9105 deg
Mean anomaly:     197.2404 deg
Mean motion:   14.20659869 rev/day
Decay rate:        3.9e-07 rev/day^2
Epoch rev:           32581
Checksum:              358

